TimeEDT,TemperatureF,Dew PointF,Humidity,Sea Level PressureIn,VisibilityMPH,Wind Direction,Wind SpeedMPH,Gust SpeedMPH,PrecipitationIn,Events,Conditions,WindDirDegrees,DateUTC
12:53 AM,78.1,69.1,74,30.13,10.0,East,5.8,-,N/A,,Scattered Clouds,80,2013-08-27 04:53:00
1:53 AM,78.1,66.9,68,30.11,10.0,ENE,4.6,-,N/A,,Clear,70,2013-08-27 05:53:00
2:53 AM,72.0,70.0,93,30.10,10.0,Calm,Calm,-,N/A,,Mostly Cloudy,0,2013-08-27 06:53:00
3:53 AM,73.0,70.0,90,30.09,10.0,Calm,Calm,-,N/A,,Mostly Cloudy,0,2013-08-27 07:53:00
4:53 AM,73.0,70.0,90,30.08,10.0,Calm,Calm,-,N/A,,Scattered Clouds,0,2013-08-27 08:53:00
5:53 AM,73.9,71.1,91,30.08,10.0,North,3.5,-,N/A,,Overcast,350,2013-08-27 09:53:00
6:53 AM,73.0,71.1,93,30.09,10.0,North,3.5,-,N/A,,Overcast,350,2013-08-27 10:53:00
7:53 AM,73.0,70.0,90,30.10,10.0,Calm,Calm,-,N/A,,Partly Cloudy,0,2013-08-27 11:53:00
8:53 AM,75.9,72.0,87,30.11,10.0,North,5.8,-,N/A,,Overcast,350,2013-08-27 12:53:00
9:53 AM,81.0,71.1,72,30.10,10.0,NNE,6.9,-,N/A,,Mostly Cloudy,20,2013-08-27 13:53:00
10:53 AM,82.9,66.9,58,30.11,10.0,East,8.1,-,N/A,,Mostly Cloudy,100,2013-08-27 14:53:00
11:53 AM,82.9,68.0,60,30.11,10.0,East,4.6,-,N/A,,Mostly Cloudy,90,2013-08-27 15:53:00
12:53 PM,82.9,66.0,56,30.09,10.0,East,6.9,-,N/A,,Mostly Cloudy,80,2013-08-27 16:53:00
1:53 PM,84.0,64.9,53,30.08,10.0,East,8.1,-,N/A,,Scattered Clouds,90,2013-08-27 17:53:00
2:53 PM,84.0,64.0,51,30.06,10.0,East,9.2,-,N/A,,Clear,100,2013-08-27 18:53:00
3:53 PM,84.0,66.0,55,30.05,10.0,ESE,9.2,-,N/A,,Clear,120,2013-08-27 19:53:00
4:53 PM,84.0,66.9,56,30.04,10.0,SE,10.4,-,N/A,,Clear,130,2013-08-27 20:53:00
5:53 PM,82.9,66.9,58,30.04,10.0,SE,8.1,-,N/A,,Clear,130,2013-08-27 21:53:00
6:53 PM,81.0,64.0,56,30.04,10.0,SE,6.9,-,N/A,,Scattered Clouds,140,2013-08-27 22:53:00
7:53 PM,80.1,64.9,60,30.04,10.0,SE,6.9,-,N/A,,Scattered Clouds,130,2013-08-27 23:53:00
8:53 PM,79.0,64.9,62,30.04,10.0,SE,4.6,-,N/A,,Mostly Cloudy,140,2013-08-28 00:53:00
9:53 PM,80.1,66.0,62,30.05,10.0,SSE,4.6,-,N/A,,Overcast,150,2013-08-28 01:53:00
10:53 PM,79.0,66.0,64,30.07,10.0,SSE,3.5,-,N/A,,Mostly Cloudy,160,2013-08-28 02:53:00
11:53 PM,78.1,66.0,66,30.06,10.0,Calm,Calm,-,N/A,,Clear,0,2013-08-28 03:53:00